Location: Drocourt
(49.0571°N, 1.7669°E)
Time: 06:54:15
(UTC+00:00)

Cosmos 883 Rocket - Pass Details

Date: 09 February 2023
Orbit: 949 x 995 km, 83.0° (Epoch: 30 March)

Event Time Altitude Azimuth Distance (km) Brightness Sun altitude
Rises 18:51:27 0° 184° (S) 3,674 7.6 -18.2°
Reaches altitude 10° 18:53:56 10° 184° (S) 2,736 6.9 -18.6°
Maximum altitude 19:00:14 84° 98° (E) 1,003 4.4 -19.6°
Drops below altitude 10° 19:06:38 10° 10° (N) 2,773 6.8 -20.7°
Sets 19:09:10 0° 10° (N) 3,727 7.5 -21.1°
